Terminal Aerodrome Forecast
Issued by NWS Central Illinois

Home | Current Version | Previous Version | Text Only | Print | Product List | Glossary On
Versions: 1 2 3 4 5 6 7 8 9 10 11 12 13 14 15 16 17
000
FTUS43 KILX 251730
TAFPIA
TAF
KPIA 251730Z 2518/2618 08012G18KT P6SM -RA OVC007
      TEMPO 2521/2601 5SM -RA BR
     FM260100 05012KT P6SM OVC015
     FM260600 03009KT P6SM SCT015=

USA.gov is the U.S. government's official web portal to all federal, state and local government web resources and services.